{"data":{"norad_id":62606,"intl_designator":"2025-008V","name":"STARLINK-32783","alt_names":[],"object_type":"PAYLOAD","status":"ACTIVE","operator":null,"country":"US","launch_date":"2025-01-13","launch_site_code":"AFETR","launch_vehicle":null,"mission":null,"orbit_class":"UNKNOWN","rcs_meters":null,"size_class":null,"mass_kg":null,"dimensions":null,"purposes":["comms"],"wikipedia_slug":null,"has_3d_model":false,"image_url":null,"decayed_at":null,"tle_current":{"epoch":"2026-05-25T04:24:11.838240Z","epoch_age_seconds":55384,"freshness":"FRESH","line1":"1 62606U 25008V   26145.18347035  .00013437  00000+0  49679-3 0  9999","line2":"2 62606  42.9974 205.8778 0001126 289.2504  70.8226 15.27588827 77264","mean_motion":15.27588827,"eccentricity":0.0001126,"inclination_deg":42.9974,"raan_deg":205.8778,"arg_perigee_deg":289.2504,"mean_anomaly_deg":70.8226,"bstar":0.00049679,"rev_number":7726,"period_min":94.266204003861,"perigee_km":482.25009837516,"apogee_km":483.79523153171,"semimajor_km":6861.1596649534,"source":"CELESTRAK","updated_at":"2026-05-25T13:38:19.737359Z"}}}